Location: Lombard
(41.8800°N, 88.0080°W)
Time: 02:36:00
(UTC-06:00)

X-37B - Visible Passes

Search period start: 03 March 2024 00:00
Search period end: 13 March 2024 01:00
Orbit: 277 x 277 km, 45.0° (Epoch: 01 November)

Date Brightness Start Highest point End Pass type
(mag) Time Alt. Az. Time Alt. Az. Time Alt. Az.
06 Mar 2.1 19:03:41 10° SSW 19:04:42 16° S 19:04:42 16° S visible
07 Mar 0.9 19:03:49 10° SW 19:05:52 31° SSE 19:05:52 31° SSE visible
08 Mar -0.1 19:04:16 10° WSW 19:06:41 59° SSE 19:06:55 54° ESE visible
09 Mar -0.1 19:04:54 10° WSW 19:07:21 80° NNW 19:07:52 50° ENE visible
10 Mar 0.4 20:05:40 10° W 20:08:04 53° NNW 20:08:43 37° NE visible
11 Mar 0.9 20:06:28 10° W 20:08:49 40° N 20:09:30 31° NE visible
12 Mar 1.0 20:07:16 10° WNW 20:09:35 36° N 20:10:15 29° NE visible
